When you browse on this site, cookies collect data to enhance your experience and personalize the content and advertising you see.
Visit our Privacy Policy to learn more. By continuing to use the site, you agree to this use of cookies and data.
  • In United Kingdom
  • List of Countries
  • For 7 days
  • Water Temperature
  • Weather Map
  • Weather Widgets
  • user-avatar
    Login

    Hourly Weather Pechyshche

    Today, 22 November, Friday

    Time Temperature Precipitation Wind Pressure Humidity
    00:00 -11°C° 0 mm 6 mps 766 mmHg 30%
    01:00 -11°C° 0 mm 6 mps 765 mmHg 32%
    02:00 -11°C° 0 mm 6 mps 765 mmHg 34%
    03:00 -11°C° 0 mm 6 mps 765 mmHg 37%
    04:00 -12°C° 0 mm 6 mps 765 mmHg 39%
    05:00 -12°C° 0 mm 6 mps 765 mmHg 42%
    06:00 -12°C° 0 mm 6 mps 765 mmHg 43%
    07:00 -12°C° 0 mm 6 mps 765 mmHg 44%
    08:00 -12°C° 0 mm 6 mps 765 mmHg 45%
    09:00 -11°C° 0 mm 6 mps 765 mmHg 42%
    10:00 -10°C° 0 mm 6 mps 765 mmHg 39%
    11:00 -9°C° 0 mm 6 mps 765 mmHg 36%
    12:00 -9°C° 0 mm 6 mps 764 mmHg 35%
    13:00 -8°C° 0 mm 6 mps 764 mmHg 33%
    14:00 -8°C° 0 mm 6 mps 763 mmHg 32%
    15:00 -8°C° 0 mm 6 mps 763 mmHg 32%
    16:00 -9°C° 0 mm 6 mps 763 mmHg 33%
    17:00 -9°C° 0 mm 6 mps 762 mmHg 34%
    18:00 -9°C° 0 mm 6 mps 763 mmHg 35%
    19:00 -10°C° 0 mm 6 mps 763 mmHg 35%
    20:00 -10°C° 0 mm 6 mps 763 mmHg 36%
    21:00 -10°C° 0 mm 5 mps 763 mmHg 37%
    22:00 -10°C° 0 mm 5 mps 763 mmHg 37%
    23:00 -10°C° 0 mm 5 mps 763 mmHg 38%

    Tomorrow, 23 November, Saturday

    Time Temperature Precipitation Wind Pressure Humidity
    00:00 -11°C° 0 mm 5 mps 763 mmHg 38%
    01:00 -11°C° 0 mm 5 mps 762 mmHg 39%
    02:00 -11°C° 0 mm 5 mps 762 mmHg 39%
    03:00 -11°C° 0 mm 5 mps 762 mmHg 40%
    04:00 -11°C° 0 mm 5 mps 762 mmHg 40%
    05:00 -12°C° 0 mm 5 mps 762 mmHg 40%
    06:00 -11°C° 0 mm 5 mps 762 mmHg 40%
    07:00 -11°C° 0 mm 5 mps 762 mmHg 39%
    08:00 -11°C° 0 mm 5 mps 762 mmHg 38%
    09:00 -10°C° 0 mm 5 mps 761 mmHg 35%
    10:00 -9°C° 0 mm 6 mps 761 mmHg 31%
    11:00 -6°C° 0 mm 6 mps 761 mmHg 27%
    12:00 -6°C° 0 mm 6 mps 760 mmHg 26%
    13:00 -5°C° 0 mm 6 mps 760 mmHg 25%
    14:00 -4°C° 0 mm 6 mps 760 mmHg 24%
    15:00 -5°C° 0 mm 6 mps 760 mmHg 25%
    16:00 -6°C° 0 mm 5 mps 759 mmHg 27%
    17:00 -7°C° 0 mm 5 mps 759 mmHg 28%
    18:00 -7°C° 0 mm 5 mps 759 mmHg 28%
    19:00 -7°C° 0 mm 5 mps 759 mmHg 29%
    20:00 -7°C° 0 mm 5 mps 759 mmHg 29%
    21:00 -7°C° 0 mm 5 mps 759 mmHg 30%
    22:00 -7°C° 0 mm 5 mps 759 mmHg 31%
    23:00 -7°C° 0 mm 4 mps 759 mmHg 31%

    Day after tomorrow, 24 November, Sunday

    Time Temperature Precipitation Wind Pressure Humidity
    00:00 -8°C° 0 mm 4 mps 759 mmHg 32%
    01:00 -8°C° 0 mm 4 mps 759 mmHg 33%
    02:00 -8°C° 0 mm 4 mps 759 mmHg 34%
    03:00 -8°C° 0 mm 4 mps 759 mmHg 34%
    04:00 -8°C° 0 mm 4 mps 759 mmHg 35%
    05:00 -10°C° 0 mm 5 mps 758 mmHg 36%
    06:00 -10°C° 0 mm 5 mps 758 mmHg 36%
    07:00 -10°C° 0 mm 5 mps 758 mmHg 36%
    08:00 -10°C° 0 mm 5 mps 758 mmHg 36%
    09:00 -7°C° 0 mm 5 mps 758 mmHg 34%
    10:00 -6°C° 0 mm 5 mps 758 mmHg 31%
    11:00 -5°C° 0 mm 5 mps 758 mmHg 28%
    12:00 -4°C° 0 mm 5 mps 758 mmHg 29%
    13:00 -4°C° 0 mm 5 mps 757 mmHg 29%
    14:00 -2°C° 0 mm 5 mps 757 mmHg 30%
    15:00 -4°C° 0 mm 5 mps 757 mmHg 37%
    16:00 -5°C° 0 mm 5 mps 757 mmHg 45%
    17:00 -5°C° 0 mm 4 mps 757 mmHg 52%
    18:00 -5°C° 0 mm 4 mps 757 mmHg 57%
    19:00 -5°C° 0 mm 4 mps 757 mmHg 63%
    20:00 -6°C° 0 mm 5 mps 757 mmHg 68%
    21:00 -5°C° 0 mm 4 mps 757 mmHg 69%
    22:00 -7°C° 0 mm 4 mps 757 mmHg 71%
    23:00 -7°C° 0 mm 4 mps 756 mmHg 73%

    25 November, Monday

    Time Temperature Precipitation Wind Pressure Humidity
    00:00 -7°C° 0 mm 4 mps 756 mmHg 73%
    01:00 -7°C° 0 mm 4 mps 756 mmHg 73%
    02:00 -8°C° 0 mm 4 mps 756 mmHg 73%
    03:00 -8°C° 0 mm 4 mps 756 mmHg 72%
    04:00 -8°C° 0 mm 4 mps 755 mmHg 71%
    05:00 -8°C° 0 mm 4 mps 755 mmHg 69%
    06:00 -8°C° 0 mm 4 mps 755 mmHg 67%
    07:00 -8°C° 0 mm 4 mps 755 mmHg 65%
    08:00 -8°C° 0 mm 4 mps 755 mmHg 62%
    09:00 -7°C° 0 mm 4 mps 755 mmHg 57%
    10:00 -6°C° 0 mm 5 mps 755 mmHg 52%
    11:00 -5°C° 0 mm 5 mps 755 mmHg 47%
    12:00 -4°C° 0 mm 5 mps 755 mmHg 46%
    13:00 -4°C° 0 mm 5 mps 754 mmHg 45%
    14:00 -2°C° 0 mm 5 mps 754 mmHg 45%
    15:00 -3°C° 0 mm 4 mps 754 mmHg 47%
    16:00 -4°C° 0 mm 4 mps 753 mmHg 49%
    17:00 -5°C° 0 mm 4 mps 753 mmHg 51%
    18:00 -5°C° 0 mm 4 mps 753 mmHg 50%
    19:00 -5°C° 0 mm 4 mps 753 mmHg 49%
    20:00 -5°C° 0 mm 4 mps 753 mmHg 47%
    21:00 -7°C° 0 mm 4 mps 753 mmHg 46%
    22:00 -7°C° 0 mm 4 mps 753 mmHg 45%
    23:00 -7°C° 0 mm 4 mps 753 mmHg 45%

    26 November, Tuesday

    Time Temperature Precipitation Wind Pressure Humidity
    00:00 -7°C° 0 mm 4 mps 753 mmHg 46%
    01:00 -6°C° 0 mm 3 mps 752 mmHg 47%
    02:00 -7°C° 0 mm 3 mps 752 mmHg 49%
    03:00 -7°C° 0 mm 3 mps 752 mmHg 50%
    04:00 -7°C° 0 mm 3 mps 752 mmHg 52%
    05:00 -7°C° 0 mm 3 mps 751 mmHg 54%
    06:00 -7°C° 0 mm 3 mps 751 mmHg 54%
    07:00 -8°C° 0 mm 4 mps 751 mmHg 54%
    08:00 -7°C° 0 mm 4 mps 751 mmHg 55%
    09:00 -7°C° 0 mm 4 mps 751 mmHg 54%
    10:00 -5°C° 0 mm 4 mps 751 mmHg 54%
    11:00 -4°C° 0 mm 4 mps 751 mmHg 54%
    12:00 -4°C° 0 mm 4 mps 750 mmHg 55%
    13:00 -3°C° 0 mm 4 mps 750 mmHg 56%
    14:00 -3°C° 0 mm 4 mps 749 mmHg 57%
    15:00 -4°C° 0 mm 4 mps 749 mmHg 61%
    16:00 -4°C° 0 mm 4 mps 749 mmHg 65%
    17:00 -5°C° 0 mm 3 mps 749 mmHg 69%
    18:00 -5°C° 0 mm 3 mps 749 mmHg 71%
    19:00 -5°C° 0 mm 3 mps 749 mmHg 74%
    20:00 -5°C° 0 mm 3 mps 749 mmHg 76%
    21:00 -5°C° 0 mm 3 mps 749 mmHg 77%
    22:00 -5°C° 0 mm 3 mps 748 mmHg 77%
    23:00 -5°C° 0 mm 3 mps 748 mmHg 78%

    27 November, Wednesday

    Time Temperature Precipitation Wind Pressure Humidity
    00:00 -4°C° 0 mm 3 mps 748 mmHg 76%
    01:00 -4°C° 0 mm 3 mps 748 mmHg 75%
    02:00 -4°C° 0 mm 3 mps 748 mmHg 74%
    03:00 -4°C° 0.1 mm 3 mps 748 mmHg 79%
    04:00 -4°C° 0.1 mm 3 mps 748 mmHg 84%
    05:00 -4°C° 0.1 mm 3 mps 747 mmHg 89%
    06:00 -4°C° 0.2 mm 4 mps 747 mmHg 89%
    07:00 -4°C° 0.2 mm 4 mps 747 mmHg 89%
    08:00 -4°C° 0.2 mm 4 mps 747 mmHg 89%
    09:00 -3°C° 0 mm 4 mps 747 mmHg 86%
    10:00 -3°C° 0 mm 4 mps 747 mmHg 83%
    11:00 -2°C° 0 mm 4 mps 747 mmHg 81%
    12:00 -2°C° 0 mm 4 mps 747 mmHg 81%
    13:00 -1°C° 0 mm 3 mps 746 mmHg 82%
    14:00 -1°C° 0 mm 3 mps 746 mmHg 83%
    15:00 -1°C° 0.1 mm 3 mps 746 mmHg 86%
    16:00 -1°C° 0.1 mm 3 mps 746 mmHg 90%
    17:00 -2°C° 0.1 mm 4 mps 746 mmHg 94%
    18:00 -1°C° 0.2 mm 3 mps 746 mmHg 95%
    19:00 -1°C° 0.2 mm 3 mps 746 mmHg 96%
    20:00 -1°C° 0.2 mm 3 mps 746 mmHg 97%
    21:00 -1°C° 0.1 mm 3 mps 746 mmHg 97%
    22:00 0°C° 0.1 mm 3 mps 746 mmHg 97%
    23:00 +1°C° 0.1 mm 2 mps 746 mmHg 98%
    Show more